| time (UTC) | temp C | wind direction | speed KPH | gust KPH | rain 1hr cm | rain 24hr cm | rain mn cm | humidity % | barometer mb |
| 20260904190016 | 23 | 301 | 3.2 | 17.7 | 0.00 | 0.03 | 0.03 | 66 | 1009.1 |
| 20260904184514 | 22 | 215 | 1.6 | 16.1 | 0.00 | 0.03 | 0.03 | 69 | 1009.3 |
| 20260904183013 | 22 | 250 | 1.6 | 11.3 | 0.00 | 0.03 | 0.03 | 66 | 1009.5 |
| 20260904181513 | 22 | 315 | 4.8 | 14.5 | 0.00 | 0.03 | 0.03 | 70 | 1009.3 |
| 20260904180013 | 22 | 209 | 3.2 | 14.5 | 0.00 | 0.03 | 0.03 | 70 | 1009.6 |
| 20260904174515 | 22 | 348 | 3.2 | 12.9 | 0.00 | 0.03 | 0.03 | 67 | 1009.8 |
| 20260904173014 | 23 | 312 | 6.4 | 20.9 | 0.00 | 0.03 | 0.03 | 65 | 1009.4 |
| 20260904171512 | 23 | 302 | 0.0 | 11.3 | 0.00 | 0.03 | 0.03 | 67 | 1009.3 |
| 20260904170010 | 22 | 360 | 3.2 | 16.1 | 0.00 | 0.03 | 0.03 | 68 | 1009.6 |
| 20260904164508 | 23 | 315 | 0.0 | 14.5 | 0.00 | 0.03 | 0.03 | 67 | 1009.4 |
| 20260904163015 | 22 | 327 | 0.0 | 19.3 | 0.00 | 0.03 | 0.03 | 67 | 1009.7 |
| 20260904161507 | 22 | 315 | 9.7 | 19.3 | 0.00 | 0.03 | 0.03 | 66 | 1009.8 |
| 20260904160008 | 22 | 306 | 8.0 | 20.9 | 0.00 | 0.03 | 0.03 | 68 | 1010.0 |
| 20260904154502 | 22 | 298 | 1.6 | 19.3 | 0.00 | 0.03 | 0.03 | 67 | 1010.1 |
| 20260904153001 | 22 | 35 | 0.0 | 17.7 | 0.00 | 0.03 | 0.03 | 69 | 1010.1 |
| 20260904151558 | 22 | 284 | 3.2 | 12.9 | 0.00 | 0.03 | 0.03 | 74 | 1010.2 |
| 20260904150056 | 22 | 329 | 0.0 | 8.0 | 0.00 | 0.03 | 0.03 | 76 | 1010.3 |
| 20260904144554 | 21 | 278 | 0.0 | 14.5 | 0.00 | 0.03 | 0.03 | 74 | 1010.2 |
| 20260904143050 | 21 | 292 | 0.0 | 11.3 | 0.00 | 0.03 | 0.03 | 79 | 1010.2 |
| 20260904141553 | 21 | 332 | 0.0 | 0.0 | 0.00 | 0.03 | 0.03 | 84 | 1010.2 |
| 20260904140042 | 18 | 302 | 0.0 | 0.0 | 0.00 | 0.03 | 0.03 | 87 | 1010.3 |
| 20260904134559 | 17 | 250 | 0.0 | 0.0 | 0.00 | 0.03 | 0.03 | 86 | 1010.3 |
| 20260904133036 | 17 | 190 | 0.0 | 0.0 | 0.00 | 0.03 | 0.03 | 86 | 1010.3 |
| 20260904131532 | 16 | 190 | 0.0 | 0.0 | 0.00 | 0.03 | 0.03 | 86 | 1010.3 |
| 20260904130030 | 15 | 190 | 0.0 | 4.8 | 0.00 | 0.03 | 0.03 | 86 | 1010.5 |
| 20260904124523 | 15 | 304 | 0.0 | 0.0 | 0.00 | 0.05 | 0.03 | 87 | 1010.6 |
| 20260904123020 | 15 | 319 | 0.0 | 4.8 | 0.00 | 0.05 | 0.03 | 87 | 1010.6 |
| 20260904121518 | 13 | 38 | 0.0 | 4.8 | 0.00 | 0.05 | 0.03 | 87 | 1010.6 |
| 20260904120020 | 13 | 20 | 0.0 | 0.0 | 0.00 | 0.05 | 0.03 | 87 | 1010.4 |
| 20260904114514 | 12 | 21 | 0.0 | 0.0 | 0.00 | 0.05 | 0.03 | 87 | 1010.5 |
| 20260904113011 | 12 | 22 | 0.0 | 0.0 | 0.00 | 0.05 | 0.03 | 87 | 1010.4 |
| 20260904111508 | 12 | 22 | 0.0 | 0.0 | 0.03 | 0.05 | 0.03 | 87 | 1010.1 |
| 20260904110007 | 12 | 22 | 0.0 | 0.0 | 0.03 | 0.05 | 0.03 | 87 | 1010.0 |
| 20260904104507 | 12 | 22 | 0.0 | 0.0 | 0.03 | 0.05 | 0.03 | 87 | 1009.8 |
| 20260904103004 | 11 | 22 | 0.0 | 0.0 | 0.03 | 0.05 | 0.03 | 88 | 1009.8 |
| 20260904101504 | 11 | 23 | 0.0 | 0.0 | 0.00 | 0.03 | 0.00 | 88 | 1009.8 |
| 20260904100004 | 12 | 23 | 0.0 | 0.0 | 0.00 | 0.03 | 0.00 | 87 | 1009.7 |
| 20260904094503 | 12 | 23 | 0.0 | 0.0 | 0.00 | 0.03 | 0.00 | 87 | 1009.4 |
| 20260904093002 | 12 | 24 | 0.0 | 0.0 | 0.00 | 0.03 | 0.00 | 88 | 1009.4 |
| 20260904091502 | 12 | 24 | 0.0 | 0.0 | 0.00 | 0.03 | 0.00 | 88 | 1009.4 |
| 20260904090107 | 12 | 24 | 0.0 | 0.0 | 0.00 | 0.03 | 0.00 | 88 | 1009.4 |
| 20260904084600 | 12 | 24 | 0.0 | 0.0 | 0.00 | 0.03 | 0.00 | 88 | 1009.3 |
| 20260904083144 | 12 | 24 | 0.0 | 0.0 | 0.00 | 0.03 | 0.00 | 88 | 1009.4 |
| 20260904081601 | 12 | 24 | 0.0 | 0.0 | 0.00 | 0.03 | 0.00 | 88 | 1009.6 |
| 20260904080054 | 12 | 24 | 0.0 | 0.0 | 0.00 | 0.03 | 0.00 | 88 | 1009.5 |
| 20260904074554 | 12 | 24 | 0.0 | 0.0 | 0.00 | 0.03 | 0.00 | 88 | 1009.4 |
| 20260904073058 | 12 | 24 | 0.0 | 0.0 | 0.00 | 0.03 | 0.00 | 88 | 1009.6 |
| 20260904071616 | 12 | 24 | 0.0 | 0.0 | 0.00 | 0.03 | 0.00 | 88 | 1009.7 |
| 20260904070112 | 13 | 24 | 0.0 | 0.0 | 0.00 | 0.03 | 0.00 | 88 | 1009.6 |
| 20260904064549 | 13 | 24 | 0.0 | 0.0 | 0.00 | 0.03 | 0.00 | 88 | 1009.8 |
| 20260904063100 | 13 | 24 | 0.0 | 0.0 | 0.00 | 0.03 | 0.00 | 88 | 1009.6 |
| 20260904061544 | 13 | 24 | 0.0 | 0.0 | 0.00 | 0.03 | 0.00 | 87 | 1009.8 |
| 20260904060042 | 13 | 24 | 0.0 | 0.0 | 0.00 | 0.03 | 0.00 | 88 | 1010.1 |
| 20260904054547 | 13 | 24 | 0.0 | 0.0 | 0.00 | 0.03 | 0.00 | 87 | 1010.2 |
| 20260904053051 | 14 | 24 | 0.0 | 0.0 | 0.00 | 0.03 | 0.00 | 88 | 1010.5 |
| 20260904051541 | 14 | 24 | 0.0 | 0.0 | 0.00 | 0.03 | 0.00 | 88 | 1010.7 |
| 20260904050039 | 14 | 24 | 0.0 | 0.0 | 0.00 | 0.03 | 0.00 | 87 | 1010.7 |
| 20260904044534 | 14 | 24 | 0.0 | 0.0 | 0.00 | 0.03 | 0.00 | 88 | 1010.8 |
| 20260904043036 | 15 | 24 | 0.0 | 0.0 | 0.00 | 0.03 | 0.00 | 88 | 1010.7 |
| 20260904041531 | 15 | 24 | 0.0 | 0.0 | 0.00 | 0.03 | 0.00 | 87 | 1010.7 |
| 20260904040029 | 15 | 24 | 0.0 | 0.0 | 0.00 | 0.03 | 0.00 | 87 | 1010.7 |
| 20260904034528 | 15 | 24 | 0.0 | 0.0 | 0.00 | 0.03 | 0.03 | 87 | 1010.7 |
| 20260904033029 | 15 | 24 | 0.0 | 0.0 | 0.00 | 0.03 | 0.03 | 87 | 1010.9 |
| 20260904031535 | 16 | 24 | 0.0 | 0.0 | 0.00 | 0.03 | 0.03 | 87 | 1010.9 |
| 20260904030027 | 16 | 24 | 0.0 | 0.0 | 0.00 | 0.03 | 0.03 | 87 | 1011.0 |
| 20260904024526 | 16 | 24 | 0.0 | 0.0 | 0.00 | 0.03 | 0.03 | 87 | 1011.2 |
| 20260904023026 | 16 | 24 | 0.0 | 0.0 | 0.00 | 0.03 | 0.03 | 87 | 1011.2 |
| 20260904021529 | 17 | 24 | 0.0 | 0.0 | 0.00 | 0.03 | 0.03 | 87 | 1011.3 |
| 20260904020026 | 17 | 24 | 0.0 | 0.0 | 0.00 | 0.03 | 0.03 | 87 | 1011.1 |
| 20260904014524 | 17 | 24 | 0.0 | 0.0 | 0.00 | 0.03 | 0.03 | 87 | 1011.2 |
| 20260904013124 | 17 | 24 | 0.0 | 0.0 | 0.00 | 0.03 | 0.03 | 87 | 1011.1 |
| 20260904011525 | 17 | 25 | 0.0 | 0.0 | 0.00 | 0.03 | 0.03 | 87 | 1011.2 |
| 20260904010024 | 17 | 25 | 0.0 | 0.0 | 0.00 | 0.03 | 0.03 | 87 | 1011.0 |
| 20260904004522 | 18 | 25 | 0.0 | 0.0 | 0.00 | 0.03 | 0.03 | 87 | 1011.0 |
| 20260904003022 | 18 | 25 | 0.0 | 0.0 | 0.00 | 0.03 | 0.03 | 87 | 1010.9 |
| 20260904001522 | 18 | 25 | 0.0 | 0.0 | 0.00 | 0.03 | 0.03 | 87 | 1010.7 |
| 20260904000023 | 19 | 25 | 0.0 | 0.0 | 0.00 | 0.03 | 0.03 | 87 | 1010.3 |
| 20260903234521 | 20 | 40 | 0.0 | 0.0 | 0.00 | 0.03 | 0.03 | 86 | 1010.2 |
| 20260903233022 | 20 | 40 | 0.0 | 0.0 | 0.00 | 0.03 | 0.03 | 85 | 1010.1 |
| 20260903231523 | 21 | 40 | 0.0 | 0.0 | 0.00 | 0.03 | 0.03 | 85 | 1010.1 |
| 20260903230033 | 22 | 13 | 0.0 | 3.2 | 0.00 | 0.03 | 0.03 | 84 | 1010.3 |
| 20260903224521 | 22 | 206 | 0.0 | 0.0 | 0.00 | 0.03 | 0.03 | 83 | 1010.3 |
| 20260903223023 | 22 | 206 | 0.0 | 0.0 | 0.00 | 0.03 | 0.03 | 81 | 1010.3 |
| 20260903221517 | 23 | 244 | 0.0 | 0.0 | 0.00 | 0.03 | 0.03 | 80 | 1010.1 |
| 20260903220024 | 23 | 225 | 0.0 | 0.0 | 0.00 | 0.03 | 0.03 | 80 | 1010.4 |
| 20260903214526 | 23 | 210 | 0.0 | 4.8 | 0.00 | 0.03 | 0.03 | 80 | 1010.4 |
| 20260903213014 | 23 | 198 | 3.2 | 9.7 | 0.00 | 0.03 | 0.03 | 80 | 1010.7 |
| 20260903211526 | 23 | 206 | 1.6 | 11.3 | 0.00 | 0.03 | 0.03 | 78 | 1010.6 |
| 20260903210017 | 23 | 212 | 3.2 | 9.7 | 0.00 | 0.03 | 0.03 | 78 | 1010.4 |
| 20260903204513 | 23 | 244 | 0.0 | 9.7 | 0.00 | 0.03 | 0.03 | 79 | 1010.3 |
| 20260903203012 | 24 | 259 | 0.0 | 12.9 | 0.00 | 0.03 | 0.03 | 79 | 1010.4 |
| 20260903201517 | 23 | 229 | 4.8 | 12.9 | 0.00 | 0.03 | 0.03 | 80 | 1010.4 |
| 20260903200009 | 23 | 218 | 0.0 | 11.3 | 0.00 | 0.03 | 0.03 | 82 | 1010.7 |
| 20260903194507 | 23 | 189 | 0.0 | 12.9 | 0.00 | 0.03 | 0.03 | 81 | 1010.7 |
| 20260903193006 | 23 | 260 | 0.0 | 12.9 | 0.00 | 0.03 | 0.03 | 80 | 1010.9 |
| 20260903191503 | 23 | 192 | 3.2 | 20.9 | 0.00 | 0.03 | 0.03 | 83 | 1011.0 |